METEOR 2-1 DEB

Satellite information

Favourite Embed

Satellite Type and Status

DEBRISIN ORBIT

Key statistics

Satellite METEOR 2-1 DEB at a glance.

Uptime

18360

Days in orbit

Revolutions

≈ 14.7

Per day

Orbit

LEO

Low Earth Orbit

Inclination

81.2

Latest

Satellite identification and parameters

Extended collection of information and parameters for METEOR 2-1 DEB.

Object identification

Identified? True

Debris? True

Object name: METEOR 2-1 DEB

International designator: 1975-064E

Object number (NORAD): 38532

Object ID (CCSDS): 38532

Country: COMMONWEALTH OF INDEPENDENT STATES (CIS)

Current information (Y/N): Y

RCS size: SMALL

Orbital parameters

Period: 97.943 minutes

Inclination: 81.1955 deg

SMA: 7038.409 km

Apoapsis: 666.689 km

Periapsis: 653.858 km

RAAN: 124.5461 deg

Eccentricy: 0.00091152

Argument of periapsis: 176.5222 deg

Mean anomaly: 183.6047 deg

Mean motion: 14.70249528 rev/day

Mean motion (dot): 0.00040979 rev/day2

B* drag term: 0.0067541504 1/REarth

Two-line elements (TLE)

Creation date: Oct. 15, 2025, 2:21 a.m.

Reference frame: TEME

Reference center: EARTH

Epoch: Oct. 2, 2025, 9:36 p.m. UTC

TLE line 0: 0 METEOR 2-1 DEB

TLE line 1: 1 38532U 75064E 25275.90032739 .00040979 00000-0 67542-2 0 9992

TLE line 2: 2 38532 81.1955 124.5461 0009115 176.5222 183.6047 14.70249528 70363

Live tracking on map

Real-time ground track for satellite METEOR 2-1 DEB.

In-orbit conjunctions

A list of the most updated potential collisions computed for object METEOR 2-1 DEB.

Target Orbit TCA Probability of collision Miss distance Type
FENGYUN 1C DEB SSO 2024-09-26 13:20:53 0.0005184217 229.0 (m) DEBRIS
FENGYUN 1C DEB SSO 2024-09-09 14:36:33 0.0001190418 73.0 (m) DEBRIS

Associated space launch

Second generation soviet meteorological satellite

METEOR 2-1 DEB was lifted into orbit during the mission ‘Vostok 8A92M | Meteor-2 1’, on board a Vostok 8A92M space rocket.

The launch took place on July 11, 1975, 4:15 a.m. from 41/1.

For more information about the launch, click the button.

Launch to space Vostok 8A92M | Meteor-2 1
Vostok 8A92M | Meteor-2 1

Agency: N/A

Status: Launch Successful

Launch date: July 11, 1975, 4:15 a.m. UTC

Rocket: Vostok 8A92M

Launch pad: 41/1

Location: Plesetsk Cosmodrome, Russian Federation

...

Latest news about this satellite

There are no fresh news available about this satellite. Check back as we update our databases every day.


Newsletter sign-up

Weekly statistics, charts and insights to help you stay on top of the space industry.